Weather History for New Orleans Lakefront, LA

Change the Weather History Date:

Saturday, June 30, 2012

  Actual Average Record
Temperature  
Mean Temperature 85 °F 83 °F  
Max Temperature 92 °F 91 °F 100 °F (1954)
Min Temperature 77 °F 75 °F 62 °F (1974)
Degree Days  
Heating Degree Days 0 0  
Month to date heating degree days 0 0  
Since 1 June heating degree days 0 0  
Since 1 July heating degree days 766 1280  
Cooling Degree Days 20 18  
Month to date cooling degree days 533 495  
Year to date cooling degree days 1549 1114  
Since 1 June cooling degree days 533 495  
Growing Degree Days 36 (Base 50)    
Moisture  
Dew Point 71 °F    
Average Humidity 66    
Maximum Humidity 82    
Minimum Humidity 50    
Precipitation  
Precipitation 0.00 in 0.26 in 3.51 in (2003)
Month to date precipitation 3.18 8.06  
Year to date precipitation 27.02 32.30  
Snow  
Snow 0.00 in - - ()
Month to date snowfall 0.0  
Since 1 June snowfall 0.0  
Since 1 July snowfall 0.0  
Snow Depth 0.00 in    
Sea Level Pressure  
Sea Level Pressure 29.94 in    
Wind  
Wind Speed 6 mph (WSW)    
Max Wind Speed 14 mph    
Max Gust Speed 17 mph    
Visibility 10 miles    
Events      
T = Trace of Precipitation, MM = Missing Value Source: NWS Daily Summary

Daily Weather History Graph

Daily Weather History Graph

Search for Another Location

Airport:

Trip Planner

Search our weather history database for the weather conditions in past years. The results will help you decide how hot, cold, wet, or windy it might be!

Date:

Astronomy

Jun. 30, 2012 Rise Set
Actual Time 6:02 AM CDT 8:05 PM CDT
Civil Twilight 5:34 AM CDT 8:32 PM CDT
Nautical Twilight 5:01 AM CDT 9:06 PM CDT
Astronomical Twilight 4:26 AM CDT 9:41 PM CDT
Moon 5:04 PM CDT (6/30) 2:52 AM CDT (6/30)
Length of Visible Light 14h 57m
Length of Day
14h 03m
Waxing Gibbous, 87% of the Moon is Illuminated
Jun 30
Waxing Gibbous
Jul 3
Full
Jul 10
Last Quarter
Jul 18
New
Jul 26
First Quarter

Hourly Weather History & Observations

Time (CDT) Temp. Heat Index Dew Point Humidity Pressure Visibility Wind Dir Wind Speed Gust Speed Precip Events Conditions
12:53 AM 84.0 °F 89.0 °F 71.1 °F 65% 29.93 in 10.0 mi SW 6.9 mph - N/A   Clear
1:53 AM 82.9 °F 88.0 °F 72.0 °F 69% 29.92 in 10.0 mi WSW 5.8 mph - N/A   Partly Cloudy
2:39 AM 82.4 °F 87.2 °F 71.6 °F 70% 29.93 in 10.0 mi WSW 9.2 mph - N/A   Mostly Cloudy
2:48 AM 84.2 °F 89.6 °F 71.6 °F 66% 29.93 in 10.0 mi West 9.2 mph - N/A   Overcast
2:53 AM 84.0 °F 88.4 °F 70.0 °F 63% 29.91 in 10.0 mi WSW 10.4 mph - N/A   Overcast
3:53 AM 82.9 °F 87.0 °F 70.0 °F 65% 29.91 in 10.0 mi WSW 9.2 mph - N/A   Partly Cloudy
4:53 AM 82.9 °F 86.5 °F 69.1 °F 63% 29.92 in 10.0 mi SW 8.1 mph - N/A   Overcast
6:53 AM 82.0 °F 85.5 °F 69.1 °F 65% 29.95 in 10.0 mi SSW 5.8 mph - N/A   Clear
7:53 AM 84.0 °F 87.0 °F 68.0 °F 58% 29.96 in 10.0 mi SSW 3.5 mph - N/A   Clear
8:53 AM 86.0 °F 89.4 °F 68.0 °F 55% 29.97 in 10.0 mi West 3.5 mph - N/A   Clear
9:53 AM 86.0 °F 90.1 °F 69.1 °F 57% 29.96 in 10.0 mi WSW 3.5 mph - N/A   Clear
10:53 AM 88.0 °F 93.8 °F 71.1 °F 57% 29.96 in 10.0 mi Variable 3.5 mph - N/A   Clear
11:53 AM 90.0 °F 96.4 °F 71.1 °F 54% 29.95 in 10.0 mi North 6.9 mph - N/A   Clear
12:53 PM 91.0 °F 97.6 °F 71.1 °F 52% 29.95 in 10.0 mi North 5.8 mph - N/A   Clear
1:53 PM 91.9 °F 97.4 °F 70.0 °F 48% 29.95 in 10.0 mi North 5.8 mph - N/A   Partly Cloudy
2:53 PM 91.0 °F 95.6 °F 69.1 °F 48% 29.94 in 10.0 mi NNE 6.9 mph - N/A   Partly Cloudy
3:53 PM 91.9 °F 96.9 °F 69.1 °F 47% 29.93 in 10.0 mi NE 9.2 mph - N/A   Partly Cloudy
4:53 PM 91.9 °F 98.4 °F 71.1 °F 50% 29.92 in 10.0 mi NNE 5.8 mph - N/A   Partly Cloudy
5:53 PM 91.9 °F 98.4 °F 71.1 °F 50% 29.90 in 10.0 mi NE 5.8 mph - N/A   Mostly Cloudy
6:53 PM 91.0 °F 97.6 °F 71.1 °F 52% 29.92 in 10.0 mi East 4.6 mph - N/A   Mostly Cloudy
7:53 PM 89.1 °F 98.0 °F 73.9 °F 61% 29.92 in 10.0 mi SW 12.7 mph - N/A   Mostly Cloudy
8:53 PM 88.0 °F 95.6 °F 73.0 °F 61% 29.94 in 10.0 mi SW 11.5 mph - N/A   Clear
9:53 PM 86.0 °F 93.0 °F 73.0 °F 65% 29.95 in 10.0 mi SSW 8.1 mph - N/A   Clear
10:53 PM 86.0 °F 93.8 °F 73.9 °F 67% 29.96 in 10.0 mi SSW 10.4 mph - N/A   Clear
11:53 PM 84.9 °F 92.1 °F 73.9 °F 69% 29.96 in 10.0 mi SSW 8.1 mph - N/A   Clear